GSAT-29

operational
NORAD ID: 43698 Int'l Des: 2018-089 Owner: ISRO Country: IN
HEOCIRCULARGSOGEO

About GSAT-29

Description loading...

Live Position

Loading 3D Globe...

Upcoming Passes

Altitude History

Altitude vs Time

uPlot chart will show altitude changes over time

Two-Line Element Set

1 43698U 18089A 26061.09988485 .00000068 00000-0 00000+0 0 9995
2 43698 0.0631 273.6815 0001889 46.9524 290.2193 1.00270722 26713
Epoch: Mar 2, 2026 • Age: 39 hours

Current Status

Altitude 35790.7 km
Velocity 3.07 km/s
Sub-Earth Point -0.02°S, 55.05°E
Launch Date Nov 14, 2018
Age 7.2 years
Type other

Technical Details

Classification Payload
Mass 3423.00 kg
Dry Mass 1500.00 kg
Total Mass 3423.00 kg
Length 3.10 m
Diameter 1.80 m
Span 20.00 m
Shape Box + 2 pan
Manufacturer ISAC
Bus Type I3K
Phase Status In Orbit
Owner/State ISRO/IN

Large Constellations

Loading constellations...